Location: Apalco
(33.3585°N, 93.4602°W)
Time: 06:19:17
(UTC+00:00)

Envisat - Pass Details

Date: 29 September 2021
Orbit: 764 x 766 km, 98.2° (Epoch: 24 October)

Event Time Altitude Azimuth Distance (km) Brightness Sun altitude
Rises 11:31:35 0° 8° (N) 3,234 6.4 -8.2°
Reaches altitude 10° 11:33:54 10° 6° (N) 2,304 5.6 -7.7°
Maximum altitude 11:38:56 67° 285° (WNW) 824 3.0 -6.7°
Drops below altitude 10° 11:43:57 10° 203° (SSW) 2,290 5.2 -5.6°
Sets 11:46:15 0° 201° (SSW) 3,213 6.0 -5.2°
